,,,PA_Meas_PMT16A,,PR_Meas_QMR101_102,,RH_Meas_QMH101,,SR_Meas_QMS101,,TA_Meas_QMH101,,GenWind,,GenWind,
date,time,status,PA,status,PR,status,RH,status,SR,status,TA,status,DirAvg,status,SpdAvg,
2014-11-04, 00:00:04,VALID,1010.87,VALID,0,INVALID,136.844,VALID,0,VALID,24.8049,VALID,117,VALID,0,
2014-11-04, 00:01:04,VALID,1010.89,VALID,0,INVALID,136.829,VALID,0,VALID,24.7854,VALID,117,VALID,0,
2014-11-04, 00:02:04,VALID,1010.88,VALID,0,INVALID,136.837,VALID,0,VALID,24.7659,VALID,117,VALID,0,
2014-11-04, 00:03:04,VALID,1010.9,VALID,0,INVALID,136.898,VALID,0,VALID,24.7445,VALID,117,VALID,0,
2014-11-04, 00:04:04,VALID,1010.86,VALID,0,INVALID,136.837,VALID,0,VALID,24.7445,VALID,117,VALID,0,
2014-11-04, 00:05:04,VALID,1010.85,VALID,0,INVALID,136.76,VALID,0,VALID,24.7445,VALID,117,VALID,0,
2014-11-04, 00:06:04,VALID,1010.84,VALID,0,INVALID,136.829,VALID,0,VALID,24.7464,VALID,117,VALID,0,
2014-11-04, 00:07:04,VALID,1010.83,VALID,0,INVALID,136.928,VALID,0,VALID,24.7464,VALID,117,VALID,0,
2014-11-04, 00:08:04,VALID,1010.85,VALID,0,INVALID,136.966,VALID,0,VALID,24.7269,VALID,117,VALID,0,
2014-11-04, 00:09:04,VALID,1010.82,VALID,0,INVALID,137.035,VALID,0,VALID,24.7074,VALID,117,VALID,0,
2014-11-04, 00:10:04,VALID,1010.81,VALID,0,INVALID,137.073,VALID,0,VALID,24.686,VALID,117,VALID,0,
2014-11-04, 00:11:04,VALID,1010.82,VALID,0,INVALID,137.142,VALID,0,VALID,24.686,VALID,117,VALID,0,
2014-11-04, 00:12:04,VALID,1010.81,VALID,0,INVALID,137.164,VALID,0,VALID,24.7074,VALID,117,VALID,0,
2014-11-04, 00:13:04,VALID,1010.82,VALID,0,INVALID,137.21,VALID,0,VALID,24.6666,VALID,117,VALID,0,
2014-11-04, 00:14:04,VALID,1010.81,VALID,0,INVALID,137.157,VALID,0,VALID,24.6684,VALID,117,VALID,0,
2014-11-04, 00:15:04,VALID,1010.83,VALID,0,INVALID,137.187,VALID,0,VALID,24.6489,VALID,117,VALID,0,
2014-11-04, 00:16:04,VALID,1010.81,VALID,0,INVALID,137.225,VALID,0,VALID,24.6508,VALID,117,VALID,0,
2014-11-04, 00:17:04,VALID,1010.82,VALID,0,INVALID,137.264,VALID,0,VALID,24.5905,VALID,117,VALID,0,
2014-11-04, 00:18:04,VALID,1010.8,VALID,0,INVALID,137.279,VALID,0,VALID,24.6099,VALID,117,VALID,0,
2014-11-04, 00:19:04,VALID,1010.79,VALID,0,INVALID,137.34,VALID,0,VALID,24.571,VALID,117,VALID,0,
2014-11-04, 00:20:04,VALID,1010.78,VALID,0,INVALID,137.386,VALID,0,VALID,24.571,VALID,117,VALID,0,
2014-11-04, 00:21:04,VALID,1010.77,VALID,0,INVALID,137.439,VALID,0,VALID,24.5905,VALID,117,VALID,0,
2014-11-04, 00:22:04,VALID,1010.76,VALID,0,INVALID,137.401,VALID,0,VALID,24.5923,VALID,117,VALID,0,
2014-11-04, 00:23:04,VALID,1010.74,VALID,0,INVALID,137.439,VALID,0,VALID,24.571,VALID,117,VALID,0,
2014-11-04, 00:24:04,VALID,1010.73,VALID,0,INVALID,137.469,VALID,0,VALID,24.571,VALID,117,VALID,0,
2014-11-04, 00:25:04,VALID,1010.7,VALID,0,INVALID,137.485,VALID,0,VALID,24.571,VALID,117,VALID,0,
2014-11-04, 00:26:04,VALID,1010.7,VALID,0,INVALID,137.515,VALID,0,VALID,24.571,VALID,117,VALID,0,
2014-11-04, 00:27:04,VALID,1010.65,VALID,0,INVALID,137.454,VALID,0,VALID,24.571,VALID,117,VALID,0,
2014-11-04, 00:28:04,VALID,1010.68,VALID,0,INVALID,137.485,VALID,0,VALID,24.5923,VALID,117,VALID,0,
2014-11-04, 00:29:04,VALID,1010.68,VALID,0,INVALID,137.477,VALID,0,VALID,24.5905,VALID,117,VALID,0,
2014-11-04, 00:30:04,VALID,1010.69,VALID,0,INVALID,137.454,VALID,0,VALID,24.6118,VALID,117,VALID,0,
2014-11-04, 00:31:04,VALID,1010.72,VALID,0,INVALID,137.447,VALID,0,VALID,24.571,VALID,117,VALID,0,
2014-11-04, 00:32:04,VALID,1010.71,VALID,0,INVALID,137.416,VALID,0,VALID,24.5905,VALID,117,VALID,0,
2014-11-04, 00:33:04,VALID,1010.7,VALID,0,INVALID,137.355,VALID,0,VALID,24.5905,VALID,117,VALID,0,
2014-11-04, 00:34:04,VALID,1010.7,VALID,0,INVALID,137.34,VALID,0,VALID,24.5905,VALID,117,VALID,0,
2014-11-04, 00:35:04,VALID,1010.67,VALID,0,INVALID,137.248,VALID,0,VALID,24.6099,VALID,117,VALID,0,
2014-11-04, 00:36:04,VALID,1010.63,VALID,0,INVALID,137.126,VALID,0,VALID,24.6276,VALID,117,VALID,0,
2014-11-04, 00:37:04,VALID,1010.61,VALID,0,INVALID,137.035,VALID,0,VALID,24.6489,VALID,117,VALID,0,
2014-11-04, 00:38:04,VALID,1010.6,VALID,0,INVALID,136.966,VALID,0,VALID,24.6489,VALID,117,VALID,0,
2014-11-04, 00:39:04,VALID,1010.57,VALID,0,INVALID,136.989,VALID,0,VALID,24.6684,VALID,117,VALID,0,
2014-11-04, 00:40:04,VALID,1010.56,VALID,0,INVALID,136.951,VALID,0,VALID,24.6703,VALID,117,VALID,0,
2014-11-04, 00:41:04,VALID,1010.51,VALID,0,INVALID,136.974,VALID,0,VALID,24.6489,VALID,117,VALID,0,
2014-11-04, 00:42:04,VALID,1010.49,VALID,0,INVALID,136.92,VALID,0,VALID,24.6684,VALID,117,VALID,0,
2014-11-04, 00:43:04,VALID,1010.49,VALID,0,INVALID,136.951,VALID,0,VALID,24.6684,VALID,117,VALID,0,
2014-11-04, 00:44:04,VALID,1010.45,VALID,0,INVALID,136.943,VALID,0,VALID,24.6471,VALID,117,VALID,0,
2014-11-04, 00:45:04,VALID,1010.44,VALID,0,INVALID,136.943,VALID,0,VALID,24.6898,VALID,117,VALID,0,
2014-11-04, 00:46:04,VALID,1010.42,VALID,0,INVALID,136.974,VALID,0,VALID,24.6684,VALID,117,VALID,0,
2014-11-04, 00:47:04,VALID,1010.4,VALID,0,INVALID,137.012,VALID,0,VALID,24.6684,VALID,117,VALID,0,
2014-11-04, 00:48:04,VALID,1010.39,VALID,0,INVALID,137.035,VALID,0,VALID,24.6684,VALID,117,VALID,0,
2014-11-04, 00:49:04,VALID,1010.37,VALID,0,INVALID,137.058,VALID,0,VALID,24.6489,VALID,117,VALID,0,
2014-11-04, 00:50:04,VALID,1010.38,VALID,0,INVALID,137.073,VALID,0,VALID,24.6489,VALID,117,VALID,0,
2014-11-04, 00:51:04,VALID,1010.38,VALID,0,INVALID,137.088,VALID,0,VALID,24.6489,VALID,117,VALID,0,
2014-11-04, 00:52:04,VALID,1010.34,VALID,0,INVALID,137.103,VALID,0,VALID,24.6294,VALID,117,VALID,0,
2014-11-04, 00:53:04,VALID,1010.36,VALID,0,INVALID,137.149,VALID,0,VALID,24.6294,VALID,117,VALID,0,
2014-11-04, 00:54:04,VALID,1010.33,VALID,0,INVALID,137.21,VALID,0,VALID,24.6313,VALID,117,VALID,0,
2014-11-04, 00:55:04,VALID,1010.33,VALID,0,INVALID,137.264,VALID,0,VALID,24.5905,VALID,117,VALID,0,
2014-11-04, 00:56:04,VALID,1010.32,VALID,0,INVALID,137.241,VALID,0,VALID,24.6099,VALID,117,VALID,0,
2014-11-04, 00:57:04,VALID,1010.3,VALID,0,INVALID,137.187,VALID,0,VALID,24.5905,VALID,117,VALID,0,
2014-11-04, 00:58:04,VALID,1010.3,VALID,0,INVALID,137.157,VALID,0,VALID,24.6099,VALID,117,VALID,0,
2014-11-04, 00:59:05,VALID,1010.3,VALID,0,INVALID,137.111,VALID,0,VALID,24.6118,VALID,117,VALID,0,
2014-11-04, 01:00:05,VALID,1010.31,VALID,0,INVALID,137.065,VALID,0,VALID,24.6099,VALID,117,VALID,0,
2014-11-04, 01:01:05,VALID,1010.31,VALID,0,INVALID,137.119,VALID,0,VALID,24.6118,VALID,117,VALID,0,
2014-11-04, 01:02:05,VALID,1010.34,VALID,0,INVALID,137.134,VALID,0,VALID,24.571,VALID,117,VALID,0,
2014-11-04, 01:03:05,VALID,1010.34,VALID,0,INVALID,137.225,VALID,0,VALID,24.5515,VALID,117,VALID,0,
2014-11-04, 01:04:05,VALID,1010.35,VALID,0,INVALID,137.302,VALID,0,VALID,24.532,VALID,117,VALID,0,
2014-11-04, 01:05:05,VALID,1010.34,VALID,0,INVALID,137.34,VALID,0,VALID,24.5125,VALID,117,VALID,0,
2014-11-04, 01:06:05,VALID,1010.33,VALID,0,INVALID,137.393,VALID,0,VALID,24.5125,VALID,117,VALID,0,
2014-11-04, 01:07:05,VALID,1010.33,VALID,0,INVALID,137.279,VALID,0,VALID,24.5125,VALID,117,VALID,0,
2014-11-04, 01:08:05,VALID,1010.33,VALID,0,INVALID,137.187,VALID,0,VALID,24.5125,VALID,117,VALID,0,
2014-11-04, 01:09:05,VALID,1010.3,VALID,0,INVALID,137.081,VALID,0,VALID,24.532,VALID,117,VALID,0,
2014-11-04, 01:10:05,VALID,1010.3,VALID,0,INVALID,137.058,VALID,0,VALID,24.5338,VALID,117,VALID,0,
2014-11-04, 01:11:05,VALID,1010.28,VALID,0,INVALID,136.974,VALID,0,VALID,24.5125,VALID,117,VALID,0,
2014-11-04, 01:12:05,VALID,1010.29,VALID,0,INVALID,137.035,VALID,0,VALID,24.4911,VALID,117,VALID,0,
2014-11-04, 01:13:05,VALID,1010.29,VALID,0,INVALID,137.012,VALID,0,VALID,24.5338,VALID,117,VALID,0,
2014-11-04, 01:14:05,VALID,1010.3,VALID,0,INVALID,136.928,VALID,0,VALID,24.532,VALID,117,VALID,0,
2014-11-04, 01:15:05,VALID,1010.27,VALID,0,INVALID,136.89,VALID,0,VALID,24.532,VALID,117,VALID,0,
2014-11-04, 01:16:05,VALID,1010.29,VALID,0,INVALID,136.859,VALID,0,VALID,24.5106,VALID,117,VALID,0,
2014-11-04, 01:17:05,VALID,1010.26,VALID,0,INVALID,136.783,VALID,0,VALID,24.532,VALID,117,VALID,0,
2014-11-04, 01:18:05,VALID,1010.23,VALID,0,INVALID,136.699,VALID,0,VALID,24.5515,VALID,117,VALID,0,
2014-11-04, 01:19:05,VALID,1010.25,VALID,0,INVALID,136.623,VALID,0,VALID,24.5515,VALID,117,VALID,0,
2014-11-04, 01:20:05,VALID,1010.24,VALID,0,INVALID,136.577,VALID,0,VALID,24.5515,VALID,117,VALID,0,
2014-11-04, 01:21:05,VALID,1010.22,VALID,0,INVALID,136.585,VALID,0,VALID,24.5515,VALID,117,VALID,0,
2014-11-04, 01:22:05,VALID,1010.22,VALID,0,INVALID,136.661,VALID,0,VALID,24.5515,VALID,117,VALID,0,
2014-11-04, 01:23:05,VALID,1010.19,VALID,0,INVALID,136.623,VALID,0,VALID,24.5515,VALID,117,VALID,0,
2014-11-04, 01:24:05,VALID,1010.17,VALID,0,INVALID,136.654,VALID,0,VALID,24.5515,VALID,117,VALID,0,
2014-11-04, 01:25:05,VALID,1010.18,VALID,0,INVALID,136.768,VALID,0,VALID,24.5125,VALID,117,VALID,0,
2014-11-04, 01:26:05,VALID,1010.11,VALID,0,INVALID,136.875,VALID,0,VALID,24.493,VALID,117,VALID,0,
2014-11-04, 01:27:05,VALID,1010.11,VALID,0,INVALID,136.959,VALID,0,VALID,24.493,VALID,117,VALID,0,
2014-11-04, 01:28:05,VALID,1010.08,VALID,0,INVALID,136.936,VALID,0,VALID,24.4735,VALID,117,VALID,0,
2014-11-04, 01:29:05,VALID,1010.07,VALID,0,INVALID,136.844,VALID,0,VALID,24.493,VALID,117,VALID,0,
2014-11-04, 01:30:05,VALID,1010.05,VALID,0,INVALID,136.776,VALID,0,VALID,24.493,VALID,117,VALID,0,
2014-11-04, 01:31:05,VALID,1010.03,VALID,0,INVALID,136.753,VALID,0,VALID,24.493,VALID,117,VALID,0,
2014-11-04, 01:32:05,VALID,1010.04,VALID,0,INVALID,136.737,VALID,0,VALID,24.4735,VALID,117,VALID,0,
2014-11-04, 01:33:05,VALID,1010.05,VALID,0,INVALID,136.776,VALID,0,VALID,24.454,VALID,117,VALID,0,
2014-11-04, 01:34:05,VALID,1010.04,VALID,0,INVALID,136.707,VALID,0,VALID,24.4949,VALID,117,VALID,0,
2014-11-04, 01:35:05,VALID,1010.04,VALID,0,INVALID,136.547,VALID,0,VALID,24.493,VALID,117,VALID,0,
2014-11-04, 01:36:05,VALID,1010.04,VALID,0,INVALID,136.486,VALID,0,VALID,24.493,VALID,117,VALID,0,
2014-11-04, 01:37:05,VALID,1010.01,VALID,0,INVALID,136.501,VALID,0,VALID,24.4735,VALID,117,VALID,0,
2014-11-04, 01:38:05,VALID,1009.99,VALID,0,INVALID,136.684,VALID,0,VALID,24.4345,VALID,117,VALID,0,
2014-11-04, 01:39:05,VALID,1010,VALID,0,INVALID,136.753,VALID,0,VALID,24.4132,VALID,117,VALID,0,
2014-11-04, 01:40:05,VALID,1009.99,VALID,0,INVALID,136.806,VALID,0,VALID,24.3937,VALID,117,VALID,0,
2014-11-04, 01:41:05,VALID,1009.99,VALID,0,INVALID,136.722,VALID,0,VALID,24.415,VALID,117,VALID,0,
2014-11-04, 01:42:05,VALID,1009.97,VALID,0,INVALID,136.715,VALID,0,VALID,24.415,VALID,117,VALID,0,
2014-11-04, 01:43:05,VALID,1009.95,VALID,0,INVALID,136.76,VALID,0,VALID,24.415,VALID,117,VALID,0,
2014-11-04, 01:44:05,VALID,1009.93,VALID,0,INVALID,136.676,VALID,0,VALID,24.415,VALID,117,VALID,0,
2014-11-04, 01:45:05,VALID,1009.94,VALID,0,INVALID,136.57,VALID,0,VALID,24.3937,VALID,117,VALID,0,
2014-11-04, 01:46:05,VALID,1009.93,VALID,0,INVALID,136.554,VALID,0,VALID,24.415,VALID,117,VALID,0,
2014-11-04, 01:47:05,VALID,1009.9,VALID,0,INVALID,136.47,VALID,0,VALID,24.415,VALID,117,VALID,0,
2014-11-04, 01:48:05,VALID,1009.91,VALID,0,INVALID,136.28,VALID,0,VALID,24.4132,VALID,117,VALID,0,
2014-11-04, 01:49:05,VALID,1009.92,VALID,0,INVALID,136.249,VALID,0,VALID,24.415,VALID,117,VALID,0,
2014-11-04, 01:50:05,VALID,1009.87,VALID,0,INVALID,136.318,VALID,0,VALID,24.3956,VALID,117,VALID,0,
2014-11-04, 01:51:05,VALID,1009.91,VALID,0,INVALID,136.356,VALID,0,VALID,24.3956,VALID,117,VALID,0,
2014-11-04, 01:52:05,VALID,1009.89,VALID,0,INVALID,136.394,VALID,0,VALID,24.3761,VALID,117,VALID,0,
2014-11-04, 01:53:05,VALID,1009.88,VALID,0,INVALID,136.31,VALID,0,VALID,24.3956,VALID,117,VALID,0,
2014-11-04, 01:54:05,VALID,1009.86,VALID,0,INVALID,136.135,VALID,0,VALID,24.415,VALID,117,VALID,0,
2014-11-04, 01:55:05,VALID,1009.87,VALID,0,INVALID,136.074,VALID,0,VALID,24.415,VALID,117,VALID,0,
2014-11-04, 01:56:05,VALID,1009.88,VALID,0,INVALID,135.96,VALID,0,VALID,24.415,VALID,117,VALID,0,
2014-11-04, 01:57:05,VALID,1009.88,VALID,0,INVALID,135.929,VALID,0.112112,VALID,24.4327,VALID,117,VALID,0,
2014-11-04, 01:58:05,VALID,1009.86,VALID,0,INVALID,135.868,VALID,0.112112,VALID,24.4522,VALID,117,VALID,0,
2014-11-04, 01:59:05,VALID,1009.85,VALID,0,INVALID,135.792,VALID,0,VALID,24.4345,VALID,117,VALID,0,
2014-11-04, 02:00:05,VALID,1009.83,VALID,0,INVALID,135.799,VALID,0,VALID,24.4345,VALID,117,VALID,0,
2014-11-04, 02:01:05,VALID,1009.82,VALID,0,INVALID,135.799,VALID,0,VALID,24.4345,VALID,117,VALID,0,
2014-11-04, 02:02:05,VALID,1009.81,VALID,0,INVALID,135.807,VALID,0,VALID,24.4559,VALID,117,VALID,0,
2014-11-04, 02:03:05,VALID,1009.79,VALID,0,INVALID,135.777,VALID,0,VALID,24.415,VALID,117,VALID,0,
2014-11-04, 02:04:05,VALID,1009.79,VALID,0,INVALID,135.845,VALID,0,VALID,24.3956,VALID,117,VALID,0,
2014-11-04, 02:05:05,VALID,1009.79,VALID,0,INVALID,135.914,VALID,0,VALID,24.3956,VALID,117,VALID,0,
2014-11-04, 02:06:05,VALID,1009.76,VALID,0,INVALID,135.982,VALID,0,VALID,24.3956,VALID,117,VALID,0,
2014-11-04, 02:07:05,VALID,1009.78,VALID,0,INVALID,135.929,VALID,0,VALID,24.3761,VALID,117,VALID,0,
2014-11-04, 02:08:05,VALID,1009.79,VALID,0,INVALID,135.815,VALID,0,VALID,24.3956,VALID,117,VALID,0,
2014-11-04, 02:09:05,VALID,1009.79,VALID,0,INVALID,135.784,VALID,0,VALID,24.3956,VALID,117,VALID,0,
2014-11-04, 02:10:05,VALID,1009.77,VALID,0,INVALID,135.792,VALID,0,VALID,24.3742,VALID,117,VALID,0,
2014-11-04, 02:11:05,VALID,1009.78,VALID,0,INVALID,135.784,VALID,0,VALID,24.3956,VALID,117,VALID,0,
2014-11-04, 02:12:05,VALID,1009.75,VALID,0,INVALID,135.799,VALID,0,VALID,24.3956,VALID,117,VALID,0,
2014-11-04, 02:13:05,VALID,1009.73,VALID,0,INVALID,135.738,VALID,0.112112,VALID,24.3937,VALID,117,VALID,0,
2014-11-04, 02:14:05,VALID,1009.69,VALID,0,INVALID,135.609,VALID,0,VALID,24.4345,VALID,117,VALID,0,
2014-11-04, 02:15:05,VALID,1009.67,VALID,0,INVALID,135.472,VALID,0,VALID,24.4345,VALID,117,VALID,0,
2014-11-04, 02:16:05,VALID,1009.65,VALID,0,INVALID,135.388,VALID,0,VALID,24.454,VALID,117,VALID,0,
2014-11-04, 02:17:05,VALID,1009.64,VALID,0,INVALID,135.304,VALID,0,VALID,24.493,VALID,117,VALID,0,
2014-11-04, 02:18:05,VALID,1009.67,VALID,0,INVALID,135.182,VALID,0,VALID,24.5125,VALID,117,VALID,0,
2014-11-04, 02:19:05,VALID,1009.64,VALID,0,INVALID,135.075,VALID,0,VALID,24.5515,VALID,117,VALID,0,
2014-11-04, 02:20:05,VALID,1009.65,VALID,0,INVALID,134.93,VALID,0,VALID,24.5515,VALID,117,VALID,0,
2014-11-04, 02:21:05,VALID,1009.66,VALID,0,INVALID,134.861,VALID,0,VALID,24.571,VALID,117,VALID,0,
2014-11-04, 02:22:05,VALID,1009.66,VALID,0,INVALID,134.846,VALID,0,VALID,24.5905,VALID,117,VALID,0,
2014-11-04, 02:23:05,VALID,1009.67,VALID,0,INVALID,134.778,VALID,0,VALID,24.6099,VALID,117,VALID,0,
2014-11-04, 02:24:05,VALID,1009.67,VALID,0,INVALID,134.724,VALID,0,VALID,24.6099,VALID,117,VALID,0,
2014-11-04, 02:25:05,VALID,1009.62,VALID,0,INVALID,134.625,VALID,0,VALID,24.6081,VALID,117,VALID,0,
2014-11-04, 02:26:05,VALID,1009.62,VALID,0,INVALID,134.579,VALID,0,VALID,24.6081,VALID,117,VALID,0,
2014-11-04, 02:27:05,VALID,1009.61,VALID,0,INVALID,134.556,VALID,0,VALID,24.6684,VALID,117,VALID,0,
2014-11-04, 02:28:05,VALID,1009.57,VALID,0,INVALID,134.549,VALID,0,VALID,24.6471,VALID,117,VALID,0,
2014-11-04, 02:29:05,VALID,1009.58,VALID,0,INVALID,134.526,VALID,0,VALID,24.6879,VALID,117,VALID,0,
2014-11-04, 02:30:05,VALID,1009.56,VALID,0,INVALID,134.572,VALID,0,VALID,24.6684,VALID,117,VALID,0,
2014-11-04, 02:31:05,VALID,1009.54,VALID,0,INVALID,134.617,VALID,0,VALID,24.6684,VALID,117,VALID,0,
2014-11-04, 02:32:05,VALID,1009.54,VALID,0,INVALID,134.686,VALID,0,VALID,24.6684,VALID,117,VALID,0,
2014-11-04, 02:33:05,VALID,1009.51,VALID,0,INVALID,134.778,VALID,0,VALID,24.6684,VALID,117,VALID,0,
2014-11-04, 02:34:05,VALID,1009.53,VALID,0,INVALID,134.9,VALID,0,VALID,24.6489,VALID,117,VALID,0,
2014-11-04, 02:35:05,VALID,1009.5,VALID,0,INVALID,134.976,VALID,0,VALID,24.6489,VALID,117,VALID,0,
2014-11-04, 02:36:05,VALID,1009.48,VALID,0,INVALID,135.121,VALID,0,VALID,24.6276,VALID,117,VALID,0,
2014-11-04, 02:37:05,VALID,1009.49,VALID,0,INVALID,135.235,VALID,0,VALID,24.6294,VALID,117,VALID,0,
2014-11-04, 02:38:05,VALID,1009.48,VALID,0,INVALID,135.357,VALID,0,VALID,24.6099,VALID,117,VALID,0,
2014-11-04, 02:39:05,VALID,1009.5,VALID,0,INVALID,135.487,VALID,0,VALID,24.5905,VALID,117,VALID,0,
2014-11-04, 02:40:05,VALID,1009.5,VALID,0,INVALID,135.632,VALID,0,VALID,24.571,VALID,117,VALID,0,
2014-11-04, 02:41:05,VALID,1009.47,VALID,0,INVALID,135.723,VALID,0,VALID,24.571,VALID,117,VALID,0,
2014-11-04, 02:42:05,VALID,1009.5,VALID,0,INVALID,135.792,VALID,0,VALID,24.5905,VALID,117,VALID,0,
2014-11-04, 02:43:05,VALID,1009.49,VALID,0,INVALID,135.83,VALID,0,VALID,24.5905,VALID,117,VALID,0,
2014-11-04, 02:44:05,VALID,1009.49,VALID,0,INVALID,135.807,VALID,0,VALID,24.6099,VALID,117,VALID,0.409766,
2014-11-04, 02:45:05,VALID,1009.51,VALID,0,INVALID,135.746,VALID,0.112112,VALID,24.6081,VALID,117,VALID,0.239453,
2014-11-04, 02:46:05,VALID,1009.51,VALID,0,INVALID,135.716,VALID,0,VALID,24.6294,VALID,117,VALID,0.262891,
2014-11-04, 02:47:05,VALID,1009.5,VALID,0,INVALID,135.708,VALID,0.112112,VALID,24.6489,VALID,117,VALID,0.267969,
2014-11-04, 02:48:05,VALID,1009.5,VALID,0,INVALID,135.7,VALID,0,VALID,24.6489,VALID,117,VALID,0,
2014-11-04, 02:49:05,VALID,1009.48,VALID,0,INVALID,135.754,VALID,0,VALID,24.6489,VALID,117,VALID,0,
2014-11-04, 02:50:05,VALID,1009.53,VALID,0,INVALID,135.807,VALID,0,VALID,24.6489,VALID,117,VALID,0,
2014-11-04, 02:51:05,VALID,1009.5,VALID,0,INVALID,135.876,VALID,0,VALID,24.6489,VALID,117,VALID,0,
2014-11-04, 02:52:05,VALID,1009.5,VALID,0,INVALID,135.99,VALID,0,VALID,24.6081,VALID,117,VALID,0,
2014-11-04, 02:53:05,VALID,1009.5,VALID,0,INVALID,136.059,VALID,0,VALID,24.6294,VALID,117,VALID,0,
2014-11-04, 02:54:05,VALID,1009.51,VALID,0,INVALID,136.127,VALID,0,VALID,24.6294,VALID,117,VALID,0,
2014-11-04, 02:55:05,VALID,1009.51,VALID,0,INVALID,136.143,VALID,0.112112,VALID,24.6294,VALID,117,VALID,0,
2014-11-04, 02:56:05,VALID,1009.52,VALID,0,INVALID,136.143,VALID,0,VALID,24.6081,VALID,117,VALID,0,
2014-11-04, 02:57:05,VALID,1009.51,VALID,0,INVALID,136.173,VALID,0,VALID,24.6294,VALID,117,VALID,0,
2014-11-04, 02:58:05,VALID,1009.55,VALID,0,INVALID,136.257,VALID,0,VALID,24.6294,VALID,117,VALID,0,
2014-11-04, 02:59:05,VALID,1009.53,VALID,0,INVALID,136.387,VALID,0,VALID,24.5905,VALID,117,VALID,0,
2014-11-04, 03:00:05,VALID,1009.55,VALID,0,INVALID,136.486,VALID,0,VALID,24.571,VALID,117,VALID,0,
2014-11-04, 03:01:05,VALID,1009.54,VALID,0,INVALID,136.531,VALID,0,VALID,24.5515,VALID,117,VALID,0,
2014-11-04, 03:02:05,VALID,1009.56,VALID,0,INVALID,136.562,VALID,0,VALID,24.5515,VALID,117,VALID,0,
2014-11-04, 03:03:05,VALID,1009.54,VALID,0,INVALID,136.615,VALID,0,VALID,24.5515,VALID,117,VALID,0,
2014-11-04, 03:04:05,VALID,1009.56,VALID,0,INVALID,136.638,VALID,0,VALID,24.532,VALID,117,VALID,0,
2014-11-04, 03:05:05,VALID,1009.53,VALID,0,INVALID,136.661,VALID,0,VALID,24.5338,VALID,117,VALID,0,
2014-11-04, 03:06:05,VALID,1009.56,VALID,0,INVALID,136.707,VALID,0,VALID,24.5144,VALID,117,VALID,0,
2014-11-04, 03:07:05,VALID,1009.5,VALID,0,INVALID,136.707,VALID,0,VALID,24.5144,VALID,117,VALID,0,
2014-11-04, 03:08:05,VALID,1009.53,VALID,0,INVALID,136.638,VALID,0,VALID,24.5125,VALID,117,VALID,0,
2014-11-04, 03:09:05,VALID,1009.47,VALID,0,INVALID,136.6,VALID,0,VALID,24.5125,VALID,117,VALID,0,
2014-11-04, 03:10:05,VALID,1009.43,VALID,0,INVALID,136.539,VALID,0,VALID,24.5338,VALID,117,VALID,0,
2014-11-04, 03:11:05,VALID,1009.43,VALID,0,INVALID,136.509,VALID,0,VALID,24.5125,VALID,117,VALID,0,
2014-11-04, 03:12:05,VALID,1009.38,VALID,0,INVALID,136.44,VALID,0,VALID,24.5125,VALID,117,VALID,0,
2014-11-04, 03:13:05,VALID,1009.39,VALID,0,INVALID,136.425,VALID,0,VALID,24.5125,VALID,117,VALID,0,
2014-11-04, 03:14:05,VALID,1009.39,VALID,0,INVALID,136.364,VALID,0,VALID,24.532,VALID,117,VALID,0.025,
2014-11-04, 03:15:05,VALID,1009.38,VALID,0,INVALID,136.31,VALID,0,VALID,24.5125,VALID,117,VALID,0.00117188,
2014-11-04, 03:16:05,VALID,1009.37,VALID,0,INVALID,136.242,VALID,0,VALID,24.5533,VALID,117,VALID,0,
2014-11-04, 03:17:05,VALID,1009.38,VALID,0,INVALID,136.188,VALID,0,VALID,24.532,VALID,117,VALID,0,
2014-11-04, 03:18:05,VALID,1009.35,VALID,0,INVALID,136.196,VALID,0,VALID,24.532,VALID,117,VALID,0,
2014-11-04, 03:19:05,VALID,1009.36,VALID,0,INVALID,136.204,VALID,0,VALID,24.5125,VALID,117,VALID,0,
2014-11-04, 03:20:05,VALID,1009.37,VALID,0,INVALID,136.173,VALID,0,VALID,24.5125,VALID,117,VALID,0,
2014-11-04, 03:21:05,VALID,1009.37,VALID,0,INVALID,136.127,VALID,0,VALID,24.5125,VALID,117,VALID,0,
2014-11-04, 03:22:05,VALID,1009.37,VALID,0,INVALID,136.112,VALID,0,VALID,24.5125,VALID,117,VALID,0,
2014-11-04, 03:23:05,VALID,1009.37,VALID,0,INVALID,136.074,VALID,0,VALID,24.493,VALID,117,VALID,0,
2014-11-04, 03:24:05,VALID,1009.39,VALID,0,INVALID,136.051,VALID,0,VALID,24.493,VALID,117,VALID,0,
2014-11-04, 03:25:05,VALID,1009.39,VALID,0,INVALID,136.043,VALID,0,VALID,24.493,VALID,117,VALID,0,
2014-11-04, 03:26:05,VALID,1009.39,VALID,0,INVALID,136.036,VALID,0,VALID,24.5144,VALID,117,VALID,0,
2014-11-04, 03:27:05,VALID,1009.42,VALID,0,INVALID,136.043,VALID,0,VALID,24.493,VALID,117,VALID,0,
2014-11-04, 03:28:05,VALID,1009.4,VALID,0,INVALID,136.005,VALID,0,VALID,24.493,VALID,117,VALID,0,
2014-11-04, 03:29:05,VALID,1009.39,VALID,0,INVALID,135.975,VALID,0,VALID,24.493,VALID,117,VALID,0,
2014-11-04, 03:30:05,VALID,1009.37,VALID,0,INVALID,135.967,VALID,0,VALID,24.493,VALID,117,VALID,0,
2014-11-04, 03:31:05,VALID,1009.4,VALID,0,INVALID,135.96,VALID,0,VALID,24.5144,VALID,117,VALID,0,
2014-11-04, 03:32:05,VALID,1009.38,VALID,0,INVALID,135.937,VALID,0,VALID,24.5125,VALID,117,VALID,0,
2014-11-04, 03:33:05,VALID,1009.38,VALID,0,INVALID,135.853,VALID,0,VALID,24.5125,VALID,117,VALID,0,
2014-11-04, 03:34:05,VALID,1009.37,VALID,0,INVALID,135.807,VALID,0,VALID,24.532,VALID,117,VALID,0,
2014-11-04, 03:35:05,VALID,1009.41,VALID,0,INVALID,135.738,VALID,0,VALID,24.5515,VALID,117,VALID,0,
2014-11-04, 03:36:05,VALID,1009.42,VALID,0,INVALID,135.655,VALID,0,VALID,24.571,VALID,117,VALID,0,
2014-11-04, 03:37:04,VALID,1009.42,VALID,0,INVALID,135.54,VALID,0,VALID,24.6099,VALID,117,VALID,0,
2014-11-04, 03:38:04,VALID,1009.42,VALID,0,INVALID,135.449,VALID,0,VALID,24.6099,VALID,117,VALID,0,
2014-11-04, 03:39:04,VALID,1009.43,VALID,0,INVALID,135.433,VALID,0,VALID,24.6294,VALID,117,VALID,0,
2014-11-04, 03:40:04,VALID,1009.44,VALID,0,INVALID,135.449,VALID,0,VALID,24.6294,VALID,117,VALID,0,
2014-11-04, 03:41:04,VALID,1009.45,VALID,0,INVALID,135.479,VALID,0,VALID,24.6294,VALID,117,VALID,0,
2014-11-04, 03:42:04,VALID,1009.45,VALID,0,INVALID,135.525,VALID,0,VALID,24.6294,VALID,117,VALID,0,
2014-11-04, 03:43:04,VALID,1009.45,VALID,0,INVALID,135.525,VALID,0,VALID,24.6508,VALID,117,VALID,0,
2014-11-04, 03:44:04,VALID,1009.45,VALID,0,INVALID,135.624,VALID,0,VALID,24.6294,VALID,117,VALID,0,
2014-11-04, 03:45:04,VALID,1009.44,VALID,0,INVALID,135.639,VALID,0,VALID,24.6703,VALID,117,VALID,0,
2014-11-04, 03:46:04,VALID,1009.44,VALID,0,INVALID,135.647,VALID,0,VALID,24.6489,VALID,117,VALID,0,
2014-11-04, 03:47:04,VALID,1009.44,VALID,0,INVALID,135.693,VALID,0,VALID,24.6294,VALID,117,VALID,0,
2014-11-04, 03:48:04,VALID,1009.41,VALID,0,INVALID,135.746,VALID,0,VALID,24.6489,VALID,117,VALID,0,
2014-11-04, 03:49:04,VALID,1009.4,VALID,0,INVALID,135.815,VALID,0,VALID,24.6489,VALID,117,VALID,0,
2014-11-04, 03:50:04,VALID,1009.38,VALID,0,INVALID,135.86,VALID,0,VALID,24.6489,VALID,117,VALID,0,
2014-11-04, 03:51:04,VALID,1009.39,VALID,0,INVALID,135.899,VALID,0,VALID,24.6703,VALID,117,VALID,0,
2014-11-04, 03:52:04,VALID,1009.37,VALID,0,INVALID,135.906,VALID,0,VALID,24.6294,VALID,117,VALID,0,
2014-11-04, 03:53:04,VALID,1009.38,VALID,0,INVALID,135.96,VALID,0,VALID,24.6489,VALID,117,VALID,0,
2014-11-04, 03:54:04,VALID,1009.39,VALID,0,INVALID,135.982,VALID,0,VALID,24.6294,VALID,117,VALID,0,